Location: Alpha Ridge Park
(39.3209°N, 76.9128°W)
Time: 07:33:13
(UTC-04:00)

AO-92 - Pass Details

Date: 08 July 2022
Orbit: 469 x 481 km, 97.4° (Epoch: 09 August)

Event Time Altitude Azimuth Distance (km) Brightness Sun altitude
Exits shadow 23:33:02 47° 290° (WNW) 650 ? -24.0°
Drops below altitude 10° 23:36:04 10° 338° (NNW) 1,668 ? -24.3°
Sets 23:38:11 0° 343° (NNW) 2,555 ? -24.5°
